Showing default

FLOCK 4G 25, 62646

Orbit data source: Space-Track

FLOCK 4G 25, 62646 is a payload satellite in SSO that was launched on Tue, 14 Jan 2025 UTC via an FALCON 9 launch vehicle from the Air Force Western Test Range (AFWTR). Payload-class satellites include a variety of spacecraft equipped with specific instruments for various scientific and technological missions. These include communications satellites like Starlink; space stations such as the ISS; scientific satellites like the Hubble; Earth observation satellites from companies like Planet Labs, Umbra, and HawkEye 360; GPS; miniature CubeSats for education and research; and military/defense satellites.

Loading next visibility...
Identifier
62646, 2025-009AP
Orbit
SSO
Last TLE update
1 day ago
Origin
Manufacturer
Planet
Mission
Operational Commercial Imaging
Bus & Motor
CUBESAT 3U, Unknown motor
Mass
5.7 kg wet, 5.7 kg dry
Launch date (UTC)
2025-01-14 (4 months ago)
Launch vehicle
FALCON 9
Launch site
Air Force Western Test Range (AFWTR)
Object type
Payload
Rocket body
Debris
Shape & HBR
Box + 2 Pan, 0.3 m
Radar Cross Section
0.035 m², Medium (>0.1 m² and < 1m²)

Expand to show TLE details & history

TLE from 1 day ago
0 FLOCK 4G 25
1 62646U 25009AP  25139.45907922  .00006447  00000-0  29579-3 0  9994
2 62646  97.4314 220.2519 0001629 192.0866 168.0331 15.20765852 18928
Epoch: 2025-05-19T11:01Z
TLE epoch observation values (Epoch: 2025-05-19T11:01:04.444Z)
Latitude
Longitude
177.61199°
Altitude
507.717 km
Speed
7.61 km/s
True Right ascension
14h 41m 00s
True Declination
0° 00' 00"
Sunlit
Object was in full shadow at epoch
Visualization orbit readout
Latitude
3.09354°
Longitude
178.44369°
Altitude
507.342 km
Speed
7.61 km/s
Apparent Right ascension
14h 24m 16s
Apparent Declination
-17° 32' 27"
Sunlit
Object is in full shadow
Visualization observer readout
Local Sidereal Time
01:56:04
Azimuth
342.714° N
Elevation
-66.807°
Doppler factor
1
Orbital elements
Apogee altitude
501.616 km
Perigee altitude
499.375 km
Semi-major axis
6,878.632 km
Eccentricity
0.00016
Inclination
97.4314°
RAAN
220.2519°
Arg. of periapsis
192.0866°
True anomaly
Unknown
Mean anomaly
168.0331°
Eccentric anomaly
Unknown
Mean motion
3.80443 °/min
Orbital period
94.63 mins
BSTAR
0.00029579
Loading maneuver chart data...
Loading SW <> Apogee altitude chart data...
Loading historical data...
Loading historical data...
Loading historical data...
Loading historical data...
Loading historical data...
Loading historical data...
Loading historical data...

FLOCK 4G 25 Visibility forecast

Observer location: undefined°, undefined°

Span
Click to sort rows by Start time (UTC) header in descending order
Start Az.
Max El. time (UTC)
Max El. Az.
Max El.
End time (UTC)
End Az.
5 mins2025-05-20 17:36:07.477Z46.526° ENE2025-05-20 17:38:07.477Z89.29° E24.162°2025-05-20 17:41:07.477Z152.299° SSE
5 mins2025-05-21 05:48:07.477Z206.86° SW2025-05-21 05:50:07.477Z283.301° WNW33.186°2025-05-21 05:53:07.477Z333.906° NNW
|